Location: Arborea
(39.7744°N, 8.5819°E)
Time: 21:50:52
(UTC+00:00)

Cosmos 1844 Rocket - Pass Details

Date: 24 October 2021
Orbit: 826 x 843 km, 71.0° (Epoch: 06 December)

Event Time Altitude Azimuth Distance (km) Brightness Sun altitude
Rises 19:06:42 0° 330° (NNW) 3,370 6.3 -30.0°
Reaches altitude 10° 19:09:13 10° 324° (NW) 2,433 5.6 -30.5°
Maximum altitude 19:14:29 45° 253° (WSW) 1,112 3.5 -31.5°
Enters shadow 19:15:31 41° 223° (SW) 1,191 3.6 -31.7°
